GLOBALSTAR M075

Last updated on Mon Sep 21 2026 00:03:12 GMT+0000 (Coordinated Universal Time)

1 37192U 10054E 26263.64322957 -.00000095 00000+0 48389-4 0 9999 2 37192 51.9935 219.5508 0000554 67.3031 103.7625 12.62260584733991
UTC large
Height (km)
Speed (km/s)
/
Latitude / Longitude
Inclination (degrees)
Orbital Period (minutes)
Azimuth
Elevation
Range (km)
Doppler Factor

Next 0 passes for location: London (51.5072 / 0.1276)

No passes found over London.
GLOBALSTAR M075